SCP
0 0 0 0 0 0 0 0 0 0 0 0 0 0 0 0 0 0 0 0 0 0 0 0 0 0 0 0 0 0 0 0 0 0 0 0 0 0 0 0 0 0 0
0 0 0 0 0 0 0 0 0 0 0 0 0 0 0 0 0 0 0 0 0 0 0 0 0 0 0 0 0 0 0 0 0 0 0 0 0 0 0 0 0 0 0
0 0 0 0 0 0 0 0 0 0 0 0 0 0 0 0 0 0 0 0 0 0 0 0 0 0 0 0 0 0 0 0 0 0 0 0 0 0 0 0 0 0 0
-0 -0 -0 -0 -0 -0 0 0 0 0 0 0 0 0 0 0 0 0 0 0 0 0 0 0 0 0 0 0 0 0 1 0 0 0 0 0 0 0 0 0 0 0 0
-0 -0 -0 -0 -0 -0 -0 0 0 0 0 0 0 0 0 0 0 0 0 0 0 0 0 0 0 0 0 0 0 0 0 1 1 1 1 0 0 1 0 0 0 0 0
-0 -0 0 0 -0 -0 -0 0 0 0 0 0 0 0 0 0 0 0 0 0 0 0 0 0 0 0 0 0 0 0 0 1 1 1 1 1 0 0 0 0 0 0 0
0 0 0 0 0 -0 -0 0 0 0 0 0 0 0 0 0 0 0 0 0 0 0 0 0 0 0 0 0 0 0 0 0 1 1 1 0 0 0 0 0 0 0 0
0 0 0 0 -0 -0 -0 0 0 0 0 0 0 0 0 0 -0 0 0 0 0 0 0 0 0 0 0 0 0 0 0 0 0 1 1 1 0 0 0 1 0 0 0
0 0 0 0 0 0 0 0 0 0 0 0 0 0 0 0 0 0 0 0 0 0 0 0 0 0 0 0 0 0 0 0 0 0 1 1 1 0 1 1 1 1 0
0 0 0 0 0 0 0 0 0 0 0 0 0 0 0 0 0 0 0 0 0 0 0 0 0 0 0 0 0 0 0 0 0 0 0 1 1 1 1 1 1 1 1
0 0 0 0 0 0 0 0 0 0 0 0 0 0 0 0 0 0 0 0 0 0 0 0 0 0 0 0 0 0 0 0 0 0 0 0 1 1 1 1 1 1 1
0 0 0 0 0 0 0 0 0 0 0 0 0 0 0 0 0 0 0 0 0 0 0 0 0 0 0 0 0 0 0 0 0 0 0 0 0 1 0 0 1 1 1
0 0 0 0 0 0 0 0 0 0 0 0 0 0 0 0 0 0 0 0 0 0 0 0 0 0 0 0 0 0 0 0 0 0 0 0 0 0 1 1 1 1 1
0 0 0 0 0 0 0 0 0 0 0 0 0 0 0 0 0 0 0 0 0 0 0 0 0 0 0 0 0 0 0 0 0 0 0 0 0 0 0 1 1 1 1
0 0 0 0 0 0 0 0 0 0 0 0 0 0 0 0 0 0 0 0 0 0 0 0 0 0 0 0 0 0 0 0 0 0 0 0 0 0 0 0 1 1 1
0 0 0 0 0 0 0 0 0 0 0 0 0 0 0 0 0 0 0 0 0 0 0 0 0 0 0 0 0 0 0 0 0 0 0 0 0 0 0 0 1 1 0
0 0 0 0 0 0 0 0 0 0 0 0 0 0 0 0 0 0 0 0 0 0 0 0 0 0 0 0 0 0 0 0 0 0 0 0 0 0 0 0 0 1 0
0 0 0 0 0 0 0 0 0 0 0 0 0 0 0 0 0 0 0 0 0 0 0 0 0 0 0 0 0 0 0 0 0 0 0 0 0 0 0 0 0 0 0
0 0 0 0 0 0 0 0 0 0 0 0 0 0 0 0 0 0 0 0 0 0 0 0 0 0 0 0 0 0 0 0 0 0 0 0 0 0 0 0 0 0 0
0 0 0 0 0 0 0 0 0 0 0 0 0 0 0 0 0 0 0 0 0 0 0 0 0 0 0 0 0 0 0 0 0 0 0 0 0 0 0 0 0 0 0
0 0 0 0 0 0 0 0 0 0 0 0 0 0 0 0 0 0 0 0 0 0 0 0 0 0 0 0 0 0 0 0 0 0 0 0 0 0 0 0 0 0 0
0 0 0 0 0 0 0 0 0 0 0 0 0 0 0 0 0 0 0 0 0 0 0 0 0 0 0 0 0 0 0 0 0 0 0 0 0 0 0 0 0 0 0
0 0 0 0 0 0 0 0 0 0 0 0 0 0 0 0 0 0 0 0 -0 0 0 0 0 0 0 0 0 0 0 0 0 0 0 0 0 0 0 0 0 0 0
0 0 0 0 0 0 0 0 0 0 0 0 0 0 0 0 0 0 0 0 0 0 0 0 0 0 0 0 0 0 0 0 0 0 0 0 0 0 0 0 0 0 0
0 0 0 0 0 0 0 0 0 0 0 0 0 0 0 0 0 -0 0 0 0 0 0 0 0 0 0 0 0 0 0 0 0 0 0 0 0 0 0 0 1 0 0
0 0 0 0 0 0 0 0 0 0 0 0 0 0 0 0 0 0 0 0 0 0 0 0 0 0 0 0 0 0 0 0 0 0 0 0 0 0 0 1 1 1 1
Wind_Speed_500mb
19 20 22 24 26 28 29 30 32 33 33 34 32 33 32 31 31 32 40 51 46 44 42 38 35 37 39 36 34 31 29 32 34 33 32 32 33 30 24 18 13 13 14
25 26 26 28 29 30 30 30 29 32 30 31 33 33 34 34 36 40 42 50 55 54 50 48 46 43 45 45 41 40 35 32 33 37 40 36 37 37 32 27 21 18 16
29 31 33 34 36 36 36 35 34 35 32 33 33 32 33 34 39 39 40 44 51 57 58 58 53 52 50 51 50 48 44 41 37 35 41 46 40 42 41 35 30 24 21
31 33 36 39 41 41 41 41 41 41 38 35 37 36 34 36 38 40 42 46 50 55 59 60 63 62 59 58 56 55 52 49 47 42 38 44 50 44 46 44 39 33 28
30 32 37 42 48 48 45 45 43 43 44 41 41 40 42 42 43 41 42 43 47 53 54 55 62 64 66 65 62 60 59 56 53 51 45 40 46 50 49 49 45 42 36
28 32 38 44 49 50 47 49 47 45 43 39 42 46 39 41 42 42 40 37 38 42 44 47 51 50 65 67 71 68 64 62 61 58 54 48 44 53 50 53 51 50 46
29 34 38 43 47 52 56 54 50 49 45 39 42 42 43 46 31 32 33 34 31 34 35 37 37 35 39 59 67 72 73 65 64 61 61 57 51 48 59 53 55 55 53
31 35 41 47 49 53 57 55 52 49 43 34 37 43 36 43 31 17 25 28 32 31 33 34 35 36 38 40 46 68 70 75 71 67 61 60 57 52 52 61 56 58 59
35 41 47 51 54 57 59 58 48 45 40 40 34 29 26 29 42 48 33 32 37 42 45 48 49 47 47 45 44 49 60 67 77 77 75 66 66 58 53 55 62 59 63
40 48 54 57 59 60 54 46 40 40 40 43 40 38 44 50 50 45 42 43 44 50 52 51 49 47 45 44 45 50 56 60 62 77 79 81 73 67 60 54 62 67 61
45 54 58 59 60 55 50 48 47 44 43 45 46 46 48 50 52 60 66 58 50 49 49 49 49 48 48 49 49 49 54 64 63 62 70 82 84 74 65 63 56 62 68
54 60 60 62 61 56 52 52 52 49 49 50 50 50 53 53 52 55 65 66 64 60 57 55 54 51 51 50 51 55 61 61 65 65 63 70 82 85 74 69 64 58 69
56 59 65 64 59 56 58 59 56 53 52 53 52 54 54 57 57 59 62 71 68 67 65 62 58 54 51 52 52 55 58 63 66 67 67 65 66 82 86 77 70 64 57
55 63 65 61 59 56 56 54 53 54 53 53 54 53 55 55 53 55 59 60 67 69 66 70 56 56 55 54 52 54 55 60 64 65 65 68 66 68 85 89 80 72 63
58 57 61 61 62 62 60 59 55 55 52 52 52 52 54 53 52 53 54 56 60 69 73 59 52 45 47 46 44 46 50 53 57 56 65 64 67 67 71 86 88 80 73
57 61 64 63 62 58 54 52 51 49 50 51 50 52 53 53 54 56 58 59 62 68 81 57 52 47 46 47 45 45 46 51 54 62 64 63 68 69 67 74 88 86 79
57 60 61 60 58 57 53 51 51 52 52 53 53 56 59 56 59 57 57 62 68 67 75 69 56 51 52 50 47 45 46 48 49 54 55 60 64 71 71 68 78 87 82
56 58 59 59 58 54 51 51 51 49 52 54 55 54 54 53 55 57 59 58 64 63 72 72 61 57 54 50 47 46 45 46 50 53 54 61 66 67 74 73 72 86 85
58 58 58 57 56 53 52 49 49 51 53 55 56 57 60 63 66 66 68 68 67 64 64 67 67 68 62 52 48 48 50 54 53 57 58 59 70 68 71 75 76 79 89
57 58 56 55 53 51 49 49 53 54 54 56 62 65 66 70 74 77 80 80 78 74 69 64 64 56 53 51 45 46 46 47 54 50 50 53 52 68 70 72 78 80 90
56 55 54 54 50 48 48 50 57 64 70 73 75 79 77 80 75 74 78 78 81 80 74 68 64 58 55 46 50 42 47 46 49 48 47 47 48 54 58 74 78 78 90
52 51 52 51 49 51 54 56 60 66 70 73 71 73 68 77 79 81 83 84 94 96 82 68 66 62 58 54 43 44 47 49 52 45 47 51 49 55 59 58 66 78 86
52 51 51 50 54 56 58 55 59 64 67 69 67 70 79 82 77 80 76 75 73 72 88 97 88 79 64 50 48 47 50 46 48 42 41 52 53 59 57 60 64 74 87
52 55 55 57 59 55 55 53 57 62 63 70 63 82 81 81 83 80 79 80 70 68 66 63 67 96 66 55 57 50 57 54 50 47 45 49 46 63 59 63 63 70 83
52 55 55 58 53 56 53 54 55 62 60 72 76 75 76 80 87 77 73 72 64 63 53 49 51 44 41 49 48 43 45 45 53 47 46 49 48 55 57 66 64 68 78
56 58 58 50 49 53 48 49 52 56 64 75 71 69 59 57 48 36 43 49 50 48 46 45 37 43 50 54 56 61 53 51 50 41 45 49 51 49 48 60 61 63 72
Wind_Direction_500mb
23 13 5 356 348 343 337 332 327 322 317 310 307 301 297 293 290 284 280 280 274 271 271 272 267 259 255 255 257 256 257 252 244 244 241 239 236 240 241 233 234 228 216
28 22 15 6 356 349 343 338 334 328 324 318 310 307 302 297 291 287 284 281 277 274 271 266 265 264 260 257 256 255 250 253 250 244 242 242 239 236 238 234 229 228 224
25 19 14 7 359 351 346 341 336 331 325 320 315 311 306 298 292 290 287 283 282 277 271 268 263 261 260 256 255 255 253 248 251 250 245 241 242 237 235 234 232 228 225
21 17 12 5 360 353 346 342 337 332 326 321 316 311 305 300 296 293 288 284 281 279 276 270 264 262 261 257 254 253 254 250 247 250 252 244 239 239 235 233 231 229 226
13 10 5 2 358 353 346 341 335 331 326 320 316 310 306 300 297 293 287 283 283 280 275 272 268 264 260 257 254 251 250 252 249 247 250 252 242 237 234 232 232 230 228
355 354 352 350 350 348 341 335 329 326 321 316 312 310 304 298 294 291 287 281 274 276 274 268 266 264 261 257 254 253 249 246 249 248 247 249 248 236 233 232 231 229 229
335 336 337 339 339 339 337 332 326 322 319 315 313 309 304 301 292 290 286 281 273 273 270 273 275 271 266 262 255 250 248 246 242 246 247 247 247 243 232 232 231 229 228
318 323 327 329 330 329 329 324 319 315 311 310 306 309 306 299 301 276 288 284 282 276 271 269 272 271 272 271 262 256 249 245 242 240 242 245 244 245 240 228 231 230 227
309 315 318 321 321 321 319 316 311 306 302 300 296 288 303 290 296 289 284 272 275 272 271 272 269 267 270 269 266 266 259 248 242 240 238 238 240 239 243 234 225 230 228
305 310 314 315 315 315 310 305 302 297 293 290 289 280 274 278 282 290 277 276 272 272 274 272 270 268 267 263 260 255 250 252 245 238 237 235 236 236 235 240 228 226 227
302 308 310 312 311 308 302 298 296 294 288 284 282 282 278 275 271 270 279 281 274 271 271 268 270 269 264 262 259 255 257 253 249 245 238 236 234 232 231 232 235 229 225
304 307 307 308 306 303 300 298 296 290 286 281 278 275 272 271 272 271 273 275 276 274 271 269 268 267 264 261 258 253 245 249 247 247 244 239 234 230 229 230 228 230 224
302 304 305 305 303 301 299 298 293 288 285 280 276 273 270 267 269 268 269 273 275 274 271 266 265 265 265 264 262 258 257 253 247 247 245 243 239 231 226 224 227 225 229
301 304 305 305 303 299 296 292 288 286 283 279 276 272 272 270 267 265 265 270 276 274 272 269 267 266 264 264 260 254 255 256 249 246 246 243 241 238 227 223 225 222 219
303 302 303 303 301 299 296 292 287 285 282 279 275 273 270 271 268 265 263 262 264 274 273 273 273 266 265 266 264 260 257 254 252 251 246 244 239 237 233 224 223 224 219
304 304 303 301 300 297 293 289 286 284 281 279 276 274 271 270 268 263 260 260 259 263 273 274 272 267 265 264 264 260 256 250 244 242 243 242 241 237 235 229 223 223 222
304 302 301 299 298 296 293 289 286 285 282 281 277 274 271 269 268 268 267 267 264 260 267 271 269 267 267 266 266 266 259 251 247 252 249 244 240 236 234 230 224 219 221
303 301 299 298 297 294 292 290 288 287 285 282 278 277 272 267 266 263 260 264 263 264 263 268 267 264 262 264 264 262 257 251 248 245 249 248 239 233 232 230 223 219 218
303 301 299 297 295 293 292 288 287 285 282 280 278 273 272 269 265 263 261 260 261 261 261 261 265 263 259 259 261 260 258 256 252 250 247 245 237 229 227 229 224 218 216
303 302 299 297 295 295 292 289 287 287 287 283 282 280 272 269 270 276 274 268 259 255 257 259 259 256 254 261 259 260 257 253 253 249 250 245 240 235 226 225 224 219 216
305 302 300 298 294 295 294 292 292 294 294 294 293 290 284 283 283 273 267 267 261 251 251 252 254 253 251 247 253 257 257 254 253 248 249 244 238 229 231 227 225 222 215
306 304 301 298 296 295 296 296 294 294 295 294 291 292 285 286 285 274 267 264 260 251 246 245 247 244 244 244 247 247 253 253 256 249 247 244 232 229 228 228 228 221 213
306 304 303 300 301 300 303 303 299 298 296 297 297 293 292 291 281 276 273 269 267 258 257 248 241 239 241 247 243 246 245 252 252 254 248 243 232 229 226 224 224 219 211
306 307 308 305 308 307 311 306 305 302 302 303 297 302 299 295 287 282 275 267 265 260 262 251 254 245 252 252 238 243 249 255 256 250 240 245 228 225 228 227 225 220 211
308 309 308 308 309 309 313 309 309 311 309 309 310 305 308 298 292 284 263 260 265 261 257 248 245 246 248 256 247 248 242 247 251 248 237 236 232 227 226 226 224 216 211
311 309 314 313 309 313 317 321 317 314 316 317 312 317 312 312 305 279 251 247 248 256 246 249 246 245 243 240 240 239 241 240 239 241 245 231 226 220 217 217 219 210 206
Wind_Speed_850mb
19 20 22 24 26 28 29 30 32 33 33 34 32 33 32 31 31 32 40 51 46 44 42 38 35 37 39 36 34 31 29 32 34 33 32 32 33 30 24 18 13 13 14
25 26 26 28 29 30 30 30 29 32 30 31 33 33 34 34 36 40 42 50 55 54 50 48 46 43 45 45 41 40 35 32 33 37 40 36 37 37 32 27 21 18 16
29 31 33 34 36 36 36 35 34 35 32 33 33 32 33 34 39 39 40 44 51 57 58 58 53 52 50 51 50 48 44 41 37 35 41 46 40 42 41 35 30 24 21
31 33 36 39 41 41 41 41 41 41 38 35 37 36 34 36 38 40 42 46 50 55 59 60 63 62 59 58 56 55 52 49 47 42 38 44 50 44 46 44 39 33 28
30 32 37 42 48 48 45 45 43 43 44 41 41 40 42 42 43 41 42 43 47 53 54 55 62 64 66 65 62 60 59 56 53 51 45 40 46 50 49 49 45 42 36
28 32 38 44 49 50 47 49 47 45 43 39 42 46 39 41 42 42 40 37 38 42 44 47 51 50 65 67 71 68 64 62 61 58 54 48 44 53 50 53 51 50 46
29 34 38 43 47 52 56 54 50 49 45 39 42 42 43 46 31 32 33 34 31 34 35 37 37 35 39 59 67 72 73 65 64 61 61 57 51 48 59 53 55 55 53
31 35 41 47 49 53 57 55 52 49 43 34 37 43 36 43 31 17 25 28 32 31 33 34 35 36 38 40 46 68 70 75 71 67 61 60 57 52 52 61 56 58 59
35 41 47 51 54 57 59 58 48 45 40 40 34 29 26 29 42 48 33 32 37 42 45 48 49 47 47 45 44 49 60 67 77 77 75 66 66 58 53 55 62 59 63
40 48 54 57 59 60 54 46 40 40 40 43 40 38 44 50 50 45 42 43 44 50 52 51 49 47 45 44 45 50 56 60 62 77 79 81 73 67 60 54 62 67 61
45 54 58 59 60 55 50 48 47 44 43 45 46 46 48 50 52 60 66 58 50 49 49 49 49 48 48 49 49 49 54 64 63 62 70 82 84 74 65 63 56 62 68
54 60 60 62 61 56 52 52 52 49 49 50 50 50 53 53 52 55 65 66 64 60 57 55 54 51 51 50 51 55 61 61 65 65 63 70 82 85 74 69 64 58 69
56 59 65 64 59 56 58 59 56 53 52 53 52 54 54 57 57 59 62 71 68 67 65 62 58 54 51 52 52 55 58 63 66 67 67 65 66 82 86 77 70 64 57
55 63 65 61 59 56 56 54 53 54 53 53 54 53 55 55 53 55 59 60 67 69 66 70 56 56 55 54 52 54 55 60 64 65 65 68 66 68 85 89 80 72 63
58 57 61 61 62 62 60 59 55 55 52 52 52 52 54 53 52 53 54 56 60 69 73 59 52 45 47 46 44 46 50 53 57 56 65 64 67 67 71 86 88 80 73
57 61 64 63 62 58 54 52 51 49 50 51 50 52 53 53 54 56 58 59 62 68 81 57 52 47 46 47 45 45 46 51 54 62 64 63 68 69 67 74 88 86 79
57 60 61 60 58 57 53 51 51 52 52 53 53 56 59 56 59 57 57 62 68 67 75 69 56 51 52 50 47 45 46 48 49 54 55 60 64 71 71 68 78 87 82
56 58 59 59 58 54 51 51 51 49 52 54 55 54 54 53 55 57 59 58 64 63 72 72 61 57 54 50 47 46 45 46 50 53 54 61 66 67 74 73 72 86 85
58 58 58 57 56 53 52 49 49 51 53 55 56 57 60 63 66 66 68 68 67 64 64 67 67 68 62 52 48 48 50 54 53 57 58 59 70 68 71 75 76 79 89
57 58 56 55 53 51 49 49 53 54 54 56 62 65 66 70 74 77 80 80 78 74 69 64 64 56 53 51 45 46 46 47 54 50 50 53 52 68 70 72 78 80 90
56 55 54 54 50 48 48 50 57 64 70 73 75 79 77 80 75 74 78 78 81 80 74 68 64 58 55 46 50 42 47 46 49 48 47 47 48 54 58 74 78 78 90
52 51 52 51 49 51 54 56 60 66 70 73 71 73 68 77 79 81 83 84 94 96 82 68 66 62 58 54 43 44 47 49 52 45 47 51 49 55 59 58 66 78 86
52 51 51 50 54 56 58 55 59 64 67 69 67 70 79 82 77 80 76 75 73 72 88 97 88 79 64 50 48 47 50 46 48 42 41 52 53 59 57 60 64 74 87
52 55 55 57 59 55 55 53 57 62 63 70 63 82 81 81 83 80 79 80 70 68 66 63 67 96 66 55 57 50 57 54 50 47 45 49 46 63 59 63 63 70 83
52 55 55 58 53 56 53 54 55 62 60 72 76 75 76 80 87 77 73 72 64 63 53 49 51 44 41 49 48 43 45 45 53 47 46 49 48 55 57 66 64 68 78
56 58 58 50 49 53 48 49 52 56 64 75 71 69 59 57 48 36 43 49 50 48 46 45 37 43 50 54 56 61 53 51 50 41 45 49 51 49 48 60 61 63 72
Wind_Direction_850mb
23 13 5 356 348 343 337 332 327 322 317 310 307 301 297 293 290 284 280 280 274 271 271 272 267 259 255 255 257 256 257 252 244 244 241 239 236 240 241 233 234 228 216
28 22 15 6 356 349 343 338 334 328 324 318 310 307 302 297 291 287 284 281 277 274 271 266 265 264 260 257 256 255 250 253 250 244 242 242 239 236 238 234 229 228 224
25 19 14 7 359 351 346 341 336 331 325 320 315 311 306 298 292 290 287 283 282 277 271 268 263 261 260 256 255 255 253 248 251 250 245 241 242 237 235 234 232 228 225
21 17 12 5 360 353 346 342 337 332 326 321 316 311 305 300 296 293 288 284 281 279 276 270 264 262 261 257 254 253 254 250 247 250 252 244 239 239 235 233 231 229 226
13 10 5 2 358 353 346 341 335 331 326 320 316 310 306 300 297 293 287 283 283 280 275 272 268 264 260 257 254 251 250 252 249 247 250 252 242 237 234 232 232 230 228
355 354 352 350 350 348 341 335 329 326 321 316 312 310 304 298 294 291 287 281 274 276 274 268 266 264 261 257 254 253 249 246 249 248 247 249 248 236 233 232 231 229 229
335 336 337 339 339 339 337 332 326 322 319 315 313 309 304 301 292 290 286 281 273 273 270 273 275 271 266 262 255 250 248 246 242 246 247 247 247 243 232 232 231 229 228
318 323 327 329 330 329 329 324 319 315 311 310 306 309 306 299 301 276 288 284 282 276 271 269 272 271 272 271 262 256 249 245 242 240 242 245 244 245 240 228 231 230 227
309 315 318 321 321 321 319 316 311 306 302 300 296 288 303 290 296 289 284 272 275 272 271 272 269 267 270 269 266 266 259 248 242 240 238 238 240 239 243 234 225 230 228
305 310 314 315 315 315 310 305 302 297 293 290 289 280 274 278 282 290 277 276 272 272 274 272 270 268 267 263 260 255 250 252 245 238 237 235 236 236 235 240 228 226 227
302 308 310 312 311 308 302 298 296 294 288 284 282 282 278 275 271 270 279 281 274 271 271 268 270 269 264 262 259 255 257 253 249 245 238 236 234 232 231 232 235 229 225
304 307 307 308 306 303 300 298 296 290 286 281 278 275 272 271 272 271 273 275 276 274 271 269 268 267 264 261 258 253 245 249 247 247 244 239 234 230 229 230 228 230 224
302 304 305 305 303 301 299 298 293 288 285 280 276 273 270 267 269 268 269 273 275 274 271 266 265 265 265 264 262 258 257 253 247 247 245 243 239 231 226 224 227 225 229
301 304 305 305 303 299 296 292 288 286 283 279 276 272 272 270 267 265 265 270 276 274 272 269 267 266 264 264 260 254 255 256 249 246 246 243 241 238 227 223 225 222 219
303 302 303 303 301 299 296 292 287 285 282 279 275 273 270 271 268 265 263 262 264 274 273 273 273 266 265 266 264 260 257 254 252 251 246 244 239 237 233 224 223 224 219
304 304 303 301 300 297 293 289 286 284 281 279 276 274 271 270 268 263 260 260 259 263 273 274 272 267 265 264 264 260 256 250 244 242 243 242 241 237 235 229 223 223 222
304 302 301 299 298 296 293 289 286 285 282 281 277 274 271 269 268 268 267 267 264 260 267 271 269 267 267 266 266 266 259 251 247 252 249 244 240 236 234 230 224 219 221
303 301 299 298 297 294 292 290 288 287 285 282 278 277 272 267 266 263 260 264 263 264 263 268 267 264 262 264 264 262 257 251 248 245 249 248 239 233 232 230 223 219 218
303 301 299 297 295 293 292 288 287 285 282 280 278 273 272 269 265 263 261 260 261 261 261 261 265 263 259 259 261 260 258 256 252 250 247 245 237 229 227 229 224 218 216
303 302 299 297 295 295 292 289 287 287 287 283 282 280 272 269 270 276 274 268 259 255 257 259 259 256 254 261 259 260 257 253 253 249 250 245 240 235 226 225 224 219 216
305 302 300 298 294 295 294 292 292 294 294 294 293 290 284 283 283 273 267 267 261 251 251 252 254 253 251 247 253 257 257 254 253 248 249 244 238 229 231 227 225 222 215
306 304 301 298 296 295 296 296 294 294 295 294 291 292 285 286 285 274 267 264 260 251 246 245 247 244 244 244 247 247 253 253 256 249 247 244 232 229 228 228 228 221 213
306 304 303 300 301 300 303 303 299 298 296 297 297 293 292 291 281 276 273 269 267 258 257 248 241 239 241 247 243 246 245 252 252 254 248 243 232 229 226 224 224 219 211
306 307 308 305 308 307 311 306 305 302 302 303 297 302 299 295 287 282 275 267 265 260 262 251 254 245 252 252 238 243 249 255 256 250 240 245 228 225 228 227 225 220 211
308 309 308 308 309 309 313 309 309 311 309 309 310 305 308 298 292 284 263 260 265 261 257 248 245 246 248 256 247 248 242 247 251 248 237 236 232 227 226 226 224 216 211
311 309 314 313 309 313 317 321 317 314 316 317 312 317 312 312 305 279 251 247 248 256 246 249 246 245 243 240 240 239 241 240 239 241 245 231 226 220 217 217 219 210 206